Weather observations for the past three days for
Imperial Beach Naval Outlying Field - Ream Field
Imperial (Metric)
Date Time (pdt) Wind (mph) Vis. (mi.) Weather Sky Cond. Temperature (ºF) Relative Humidity Wind Chill (°F) Heat Index (°F) Pressure Precipitation (in)
Air Dwpt 6 hour altimeter (in) sea level (mb) 1 hr 3 hr 6 hr
Max. Min.
17 01:53 Calm 10.00 Overcast OVC015 0 0 0% 29.96 1014.6
17 00:53 W 5 10.00 Overcast OVC014 0 0 0% 29.97 1015.0
16 23:53 W 3 10.00 Overcast OVC014 0 0 0% 29.97 1015.0
16 22:53 W 5 10.00 Mostly Cloudy BKN013 69.1 66 90% 29.96 1014.6
16 21:53 W 5 10.00 Partly Cloudy FEW014 SCT200 70 64 82% 29.96 1014.6
16 20:53 Calm 10.00 Partly Cloudy FEW014 SCT200 71.1 64 79% 29.96 1014.4
16 19:53 W 6 10.00 Partly Cloudy FEW014 SCT200 72 64 76% 29.96 1014.4
16 18:53 W 9 10.00 Partly Cloudy FEW014 FEW040 SCT200 72 63 73% 29.95 1014.2
16 17:53 W 6 10.00 Partly Cloudy FEW014 FEW040 SCT200 72 63 73% 29.95 1014.0
16 16:53 NW 9 10.00 Partly Cloudy FEW014 FEW050 SCT200 73.4 63.1 70% 29.95 1014.3
16 15:53 Vrbl 7 10.00 Partly Cloudy FEW014 FEW040 SCT200 73.9 63 69% 29.97 1014.8
16 14:53 SW 12 10.00 Partly Cloudy FEW014 FEW040 SCT200 73.9 63 69% 29.99 1015.5
16 13:53 W 12 10.00 Partly Cloudy FEW014 FEW040 SCT200 73 63 71% 30 1015.9
16 12:53 W 12 10.00 Partly Cloudy FEW014 FEW040 SCT200 73 63 71% 30.01 1016.1
16 11:53 W 13 10.00 Mostly Cloudy SCT014 SCT040 BKN200 72 63 73% 30.01 1016.2
16 10:53 W 9 10.00 Mostly Cloudy BKN014 72 63 73% 30.02 1016.6
16 09:53 NW 7 10.00 Overcast OVC014 72 63 73% 30.03 1016.7
16 08:53 Calm 10.00 Overcast OVC013 71.1 63 76% 30.03 1016.7
16 07:53 Calm 10.00 Overcast OVC013 68 63 84% 30.03 1016.7
16 06:53 Calm 10.00 Overcast OVC013 68 63 84% 30.01 1016.3
16 05:53 SW 3 10.00 Overcast OVC012 0 0 0% 30 1016.0
16 04:53 SW 3 10.00 Overcast OVC012 0 0 0% 29.98 1015.3
16 03:53 Calm 10.00 Overcast OVC012 0 0 0% 29.98 1015.3
16 01:53 S 3 10.00 Overcast OVC012 0 0 0% 29.99 1015.6
16 00:53 Calm 10.00 Overcast OVC012 0 0 0% 30 1016.0
15 23:53 W 6 10.00 Overcast OVC011 0 0 0% 30.01 1016.3
15 22:53 NW 6 10.00 Overcast OVC012 69.4 66.7 91% 30.01 1016.3
15 21:53 NW 7 10.00 Overcast OVC013 70 66 87% 30.01 1016.0
15 20:53 NW 7 10.00 Mostly Cloudy BKN013 69.8 66.2 88% 29.98 1015.3
15 19:53 NW 7 10.00 Mostly Cloudy BKN011 BKN040 71.1 66 84% 29.97 1014.6
15 17:53 W 12 10.00 Mostly Cloudy BKN010 BKN040 73 66 79% 29.95 1014.1
15 16:53 W 13 10.00 Partly Cloudy SCT010 SCT040 73 66 79% 29.96 1014.3
15 15:53 W 13 10.00 Partly Cloudy FEW010 SCT040 73 64 74% 29.97 1014.7
15 14:53 NW 15 10.00 Partly Cloudy FEW010 SCT040 73 64 74% 29.98 1015.1
15 13:53 NW 14 10.00 Partly Cloudy FEW010 SCT040 73 64 74% 30.01 1016.0
15 12:53 W 14 10.00 Partly Cloudy FEW010 SCT040 71.1 63 76% 30.02 1016.4
15 11:53 NW 15 10.00 Partly Cloudy FEW010 SCT200 71.1 63 76% 30.03 1016.9
15 10:53 NW 14 9.00 Mostly Cloudy BKN012 71.1 63 76% 30.05 1017.5
15 09:53 NW 14 9.00 Overcast OVC012 70 63 79% 30.06 1017.8
15 07:53 NW 9 6.00 Fog/Mist OVC009 68 63 84% 30.07 1018.0
15 06:53 NW 7 6.00 Fog/Mist OVC007 68 63 84% 30.06 1018.0
15 05:53 NW 7 10.00 Overcast OVC011 0 0 0% 30.05 1017.7
15 04:53 W 6 10.00 Overcast OVC011 0 0 0% 30.04 1017.3
15 03:53 W 7 10.00 Overcast OVC010 0 0 0% 30.03 1017.0
15 02:53 W 7 10.00 Overcast OVC010 0 0 0% 30.03 1017.0
15 01:53 W 3 10.00 Overcast OVC011 0 0 0% 30.04 1017.3
15 00:53 Calm 10.00 Mostly Cloudy BKN010 0 0 0% 30.05 1017.7
14 23:53 Calm 10.00 Fair CLR 0 0 0% 30.05 1017.7
14 22:53 NW 5 10.00 Fair CLR 0 0 0% 30.04 1017.3
14 21:53 NW 6 10.00 Fair CLR 0 0 0% 30.03 1017.0
14 20:53 NW 8 10.00 Fair CLR 0 0 0% 30.02 1016.7
14 19:53 NW 8 10.00 A Few Clouds FEW011 0 0 0% 30.02 1016.7
14 17:53 NW 10 10.00 A Few Clouds FEW012 0 0 0% 30.01 1016.3
14 16:53 NW 10 10.00 Overcast OVC012 0 0 0% 30.02 1016.7
14 15:53 W 12 10.00 A Few Clouds FEW012 0 0 0% 30.03 1017.0
14 14:53 W 9 10.00 Mostly Cloudy BKN012 0 0 0% 30.05 1017.7
14 13:53 W 9 10.00 A Few Clouds FEW011 0 0 0% 30.05 1017.7
14 12:53 W 12 10.00 Fair CLR 0 0 0% 30.04 1017.3
14 11:53 W 10 10.00 Fair CLR 0 0 0% 30.05 1017.7
14 10:53 NW 9 10.00 Fair CLR 0 0 0% 30.06 1018.0
14 09:53 NW 9 10.00 Overcast OVC012 0 0 0% 30.06 1018.0
14 08:53 Calm 7.00 Overcast OVC011 0 0 0% 30.07 1018.3
14 07:53 W 5 8.00 Overcast OVC010 0 0 0% 30.08 1018.7
14 06:53 Calm 10.00 Overcast OVC011 0 0 0% 30.07 1018.3
14 05:53 SW 5 10.00 Overcast OVC010 0 0 0% 30.05 1017.7
14 04:53 Calm 10.00 Overcast OVC010 0 0 0% 30.03 1017.0
14 03:53 SW 5 10.00 Overcast OVC010 0 0 0% 30.02 1016.7
14 02:53 W 5 10.00 A Few Clouds FEW014 0 0 0% 30 1016.0
Date Time (pdt) Wind (mph) Vis. (mi.) Weather Sky Cond. Air Dwpt Max. Min. Relative Humidity Wind Chill (°F) Heat Index (°F) altimeter (in) sea level (mb) 1 hr 3 hr 6 hr
6 hour
Temperature (ºF) Pressure Precipitation (in)